This is the latest recevied weather packets stored in our database for station/object HB9TVK-13. If no packets are shown the sender has not sent any weather packets the latest 10 day(s).
| Time | Temp. | Humidity | Pressure | Rain* | Wind** | Luminosity | Snow |
|---|---|---|---|---|---|---|---|
| 1777282035 | 16.11° C | 51% | 1021.5 hPa | 0 mm | - | - | - |
| 1777281436 | 16.11° C | 52% | 1021.7 hPa | 0 mm | - | - | - |
| 1777280836 | 16.11° C | 54% | 1021.8 hPa | 0 mm | - | - | - |
| 1777280236 | 15° C | 58% | 1021.8 hPa | 0 mm | - | - | - |
| 1777279637 | 14.44° C | 60% | 1021.8 hPa | 0 mm | - | - | - |
| 1777279037 | 14.44° C | 57% | 1021.8 hPa | 0 mm | - | - | - |
| 1777278438 | 13.89° C | 60% | 1021.8 hPa | 0 mm | - | - | - |
| 1777277836 | 13.33° C | 60% | 1021.9 hPa | 0 mm | - | - | - |
| 1777277236 | 13.33° C | 61% | 1021.8 hPa | 0 mm | - | - | - |
| 1777276636 | 12.22° C | 61% | 1021.8 hPa | 0 mm | - | - | - |
| 1777276036 | 12.22° C | 61% | 1021.9 hPa | 0 mm | - | - | - |
| 1777275437 | 12.78° C | 59% | 1021.8 hPa | 0 mm | - | - | - |
| 1777274837 | 12.22° C | 61% | 1021.9 hPa | 0 mm | - | - | - |
| 1777274238 | 12.22° C | 61% | 1022 hPa | 0 mm | - | - | - |
| 1777273635 | 11.67° C | 62% | 1022 hPa | 0 mm | - | - | - |
| 1777273036 | 11.67° C | 61% | 1022 hPa | 0 mm | - | - | - |
| 1777272436 | 11.67° C | 62% | 1022 hPa | 0 mm | - | - | - |
| 1777271837 | 11.11° C | 62% | 1022 hPa | 0 mm | - | - | - |
| 1777271237 | 10.56° C | 63% | 1021.9 hPa | 0 mm | - | - | - |
| 1777270637 | 10.56° C | 64% | 1021.9 hPa | 0 mm | - | - | - |
| 1777270038 | 10° C | 64% | 1021.8 hPa | 0 mm | - | - | - |
| 1777269436 | 10° C | 65% | 1021.8 hPa | 0 mm | - | - | - |
| 1777268836 | 9.44° C | 65% | 1021.7 hPa | 0 mm | - | - | - |
| 1777268236 | 9.44° C | 65% | 1021.6 hPa | 0 mm | - | - | - |
| 1777267637 | 9.44° C | 65% | 1021.5 hPa | 0 mm | - | - | - |
* Rain latest hour (hover to see other rain measurements)
** Current wind speed in m/s (hover to see current wind gust speed)